Weather History for Augusta Bush, GA

Change the Weather History Date:

Tuesday, May 14, 2013

  Actual Average Record
Temperature  
Mean Temperature 59 °F 71 °F  
Max Temperature 77 °F 85 °F 98 °F (1881)
Min Temperature 40 °F 57 °F 40 °F (2013)
Degree Days  
Heating Degree Days 6 1  
Month to date heating degree days 34 17  
Since 1 July heating degree days 2385 2469  
Cooling Degree Days 0 6  
Month to date cooling degree days 22 66  
Year to date cooling degree days 85 139  
Growing Degree Days 8 (Base 50)    
Moisture  
Dew Point 41 °F    
Average Humidity 59    
Maximum Humidity 93    
Minimum Humidity 25    
Precipitation  
Precipitation 0.00 in 0.08 in 1.36 in (1891)
Month to date precipitation 1.88 1.05  
Year to date precipitation 19.22 15.90  
Sea Level Pressure  
Sea Level Pressure 30.21 in    
Wind  
Wind Speed 4 mph (SW)    
Max Wind Speed 12 mph    
Max Gust Speed 16 mph    
Visibility 10 miles    
Events      
T = Trace of Precipitation, MM = Missing Value Source: NWS Daily Summary

Daily Weather History Graph

Daily Weather History Graph

Search for Another Location

Airport:

Trip Planner

Search our weather history database for the weather conditions in past years. The results will help you decide how hot, cold, wet, or windy it might be!

Date:

Astronomy

May. 14, 2013 Rise Set
Actual Time 6:28 AM EDT 8:20 PM EDT
Civil Twilight 6:00 AM EDT 8:47 PM EDT
Nautical Twilight 5:27 AM EDT 9:21 PM EDT
Astronomical Twilight 4:52 AM EDT 9:56 PM EDT
Moon 10:06 AM EDT (5/14) No Moon Set
Length of Visible Light 14h 46m
Length of Day
13h 52m
Waxing Crescent, 19% of the Moon is Illuminated
May 14
Waxing Crescent
May 18
First Quarter
May 25
Full
May 31
Last Quarter
Jun 8
New

Hourly Weather History & Observations

Time (EDT) Temp. Dew Point Humidity Pressure Visibility Wind Dir Wind Speed Gust Speed Precip Events Conditions
12:53 AM 59.0 °F 36.0 °F 42% 30.19 in 10.0 mi NW 10.4 mph - N/A   Clear
1:53 AM 52.0 °F 39.0 °F 61% 30.20 in 10.0 mi NNW 8.1 mph - N/A   Clear
2:53 AM 50.0 °F 39.0 °F 66% 30.19 in 10.0 mi Calm Calm - N/A   Clear
3:53 AM 46.9 °F 39.0 °F 74% 30.19 in 10.0 mi NNW 3.5 mph - N/A   Clear
4:53 AM 44.1 °F 39.0 °F 82% 30.20 in 10.0 mi Calm Calm - N/A   Clear
5:53 AM 44.1 °F 39.0 °F 82% 30.21 in 10.0 mi Calm Calm - N/A   Clear
6:53 AM 41.0 °F 39.0 °F 93% 30.23 in 10.0 mi Calm Calm - N/A   Clear
7:53 AM 51.1 °F 45.0 °F 80% 30.25 in 10.0 mi Calm Calm - N/A   Clear
8:53 AM 59.0 °F 39.9 °F 49% 30.26 in 10.0 mi Calm Calm - N/A   Clear
9:53 AM 63.0 °F 39.9 °F 43% 30.27 in 10.0 mi East 4.6 mph - N/A   Clear
10:53 AM 68.0 °F 39.0 °F 35% 30.28 in 10.0 mi SE 6.9 mph - N/A   Clear
11:53 AM 69.1 °F 37.0 °F 31% 30.28 in 10.0 mi Variable 3.5 mph - N/A   Clear
12:53 PM 71.1 °F 34.0 °F 26% 30.27 in 10.0 mi Calm Calm - N/A   Clear
1:53 PM 73.0 °F 35.1 °F 25% 30.25 in 10.0 mi Variable 6.9 mph - N/A   Clear
2:53 PM 73.9 °F 37.0 °F 26% 30.22 in 10.0 mi ENE 4.6 mph - N/A   Clear
3:53 PM 75.9 °F 37.0 °F 24% 30.18 in 10.0 mi Variable 4.6 mph - N/A   Clear
4:53 PM 75.9 °F 39.0 °F 26% 30.17 in 10.0 mi SW 4.6 mph - N/A   Clear
5:53 PM 77.0 °F 42.1 °F 29% 30.16 in 10.0 mi Variable 6.9 mph - N/A   Clear
6:53 PM 75.9 °F 42.1 °F 30% 30.15 in 10.0 mi WSW 6.9 mph - N/A   Clear
7:53 PM 70.0 °F 46.9 °F 44% 30.15 in 10.0 mi SSW 5.8 mph - N/A   Clear
8:53 PM 63.0 °F 48.9 °F 60% 30.15 in 10.0 mi SSW 4.6 mph - N/A   Clear
9:53 PM 62.1 °F 46.9 °F 58% 30.16 in 10.0 mi South 3.5 mph - N/A   Clear
10:53 PM 59.0 °F 48.0 °F 67% 30.16 in 10.0 mi Calm Calm - N/A   Clear
11:53 PM 60.1 °F 46.9 °F 62% 30.14 in 10.0 mi SSW 5.8 mph - N/A   Clear